Dewpoint
53 53 54 56 57 59 62 62 62 62 63 62 62 61 61 61 62 62 62 62 62 62 62 63 63 63 63 63 63 64 64 65 65 65 65 64 64 64 63 61 61 62 62 62 62 63 62 62 62 62 62 62 61 61 60 60 60 60 59 58 58 58 56 55 52 54 56 55 54 51 52 54 53 54 54 54 53 52 50 50 51 51 48 47 48
51 52 54 55 56 58 60 61 61 61 62 62 62 61 61 61 62 62 62 62 62 61 61 63 63 63 62 62 63 63 64 64 64 64 64 64 64 63 63 62 62 62 63 62 63 62 64 62 61 62 61 61 62 59 59 59 58 58 57 57 57 58 58 54 51 51 53 54 53 49 51 52 49 52 55 56 54 51 46 48 49 47 46 47 42
50 51 53 55 56 58 60 61 61 61 61 61 61 61 62 62 62 62 62 62 62 62 62 62 62 62 62 63 62 63 63 63 64 64 64 64 63 63 63 62 63 63 63 63 61 62 63 63 62 63 63 63 63 61 61 59 57 57 57 56 57 57 56 55 53 50 51 52 54 49 50 50 51 48 50 54 54 50 45 44 42 40 41 46 40
50 51 52 54 55 57 59 61 61 60 60 61 61 61 61 61 61 62 62 62 61 62 62 62 63 62 62 61 62 62 62 63 63 63 63 63 63 63 64 64 63 63 63 62 61 62 63 63 63 63 63 63 62 62 62 60 60 57 57 57 58 57 58 58 56 53 52 51 50 47 49 51 50 47 48 50 51 49 45 45 43 40 40 38 39
49 50 51 52 54 55 56 59 60 60 60 61 61 61 61 61 61 61 62 62 61 61 62 62 62 62 62 62 61 61 62 62 62 63 64 64 63 63 63 63 64 64 64 63 63 63 63 63 62 62 63 62 63 62 61 61 59 59 58 56 56 57 58 57 55 54 53 51 53 49 49 48 48 47 45 45 46 46 45 43 39 38 40 39 36
49 50 50 51 51 53 55 56 58 59 60 60 60 61 61 61 61 61 61 61 61 61 62 61 61 61 61 61 60 60 61 61 61 62 62 63 64 64 64 64 64 63 63 62 62 61 63 62 62 62 62 62 62 62 61 61 59 59 59 57 56 57 57 56 56 55 53 51 53 49 48 47 45 48 45 46 45 42 40 40 40 40 39 42 40
48 49 49 50 50 51 52 54 56 58 60 60 61 60 60 61 61 61 61 61 61 61 61 61 61 61 61 60 59 61 61 61 62 62 62 62 63 63 63 64 64 64 63 62 62 62 63 62 63 62 62 61 62 62 62 62 61 60 60 60 57 57 58 56 54 54 54 53 52 52 49 48 50 48 41 43 44 42 44 42 42 36 43 43 42
48 48 49 49 49 50 51 52 53 55 58 60 60 60 60 60 60 60 61 61 61 60 60 60 60 61 61 61 59 60 61 61 61 61 61 61 62 62 62 63 62 63 63 62 63 62 63 63 63 62 62 61 62 62 62 62 61 61 61 60 59 59 58 57 55 53 54 53 51 50 48 47 46 47 39 40 41 40 37 40 42 43 45 47 46
48 48 48 48 49 49 50 51 52 53 55 58 59 60 60 60 60 60 60 61 61 61 60 60 60 59 60 61 59 60 60 60 60 60 60 60 61 61 61 61 62 62 62 62 62 62 62 63 63 62 62 62 58 58 59 59 62 61 62 60 59 59 58 57 56 54 54 53 52 52 48 48 47 47 45 44 44 44 47 45 44 44 43 44 44
47 47 47 47 48 48 49 50 50 52 54 55 57 59 59 60 60 60 60 60 60 60 60 60 59 59 59 59 59 60 61 61 58 53 54 59 60 59 60 61 61 61 62 62 62 62 62 62 62 60 57 56 53 50 49 50 52 58 62 61 59 59 59 57 56 55 55 54 52 50 49 49 47 49 48 49 49 47 47 47 45 45 46 47 48
47 47 47 47 47 48 48 49 49 50 52 53 56 58 59 60 60 60 60 61 61 60 60 59 59 59 59 58 58 60 60 59 50 46 47 50 58 60 60 60 60 61 61 61 61 60 60 59 60 57 55 53 50 44 46 46 46 47 50 52 55 59 58 57 56 56 53 52 51 50 49 49 49 48 48 47 48 47 46 47 46 48 49 49 49
46 46 46 46 47 47 47 48 48 49 50 51 53 56 58 59 59 60 60 60 60 61 60 59 58 59 58 57 58 58 58 49 44 44 44 45 51 59 60 60 60 60 60 60 60 59 58 58 57 56 57 55 52 50 47 42 42 43 43 43 44 44 45 56 55 53 53 51 50 49 49 49 49 48 47 48 47 49 51 52 52 51 52 51 50
46 46 45 45 46 46 47 47 47 48 48 49 51 53 56 58 59 59 59 59 58 58 59 58 57 58 56 57 55 54 53 41 41 42 43 44 46 53 58 60 59 60 60 59 58 58 57 57 56 56 53 53 53 53 51 49 43 42 43 43 42 41 41 43 46 54 53 51 51 51 51 52 50 51 53 54 56 56 55 53 53 53 53 52 52
43 44 45 45 45 46 46 46 46 47 47 48 48 48 49 51 53 56 58 58 57 57 56 56 55 53 53 53 52 51 50 43 42 41 42 43 45 51 58 59 59 58 58 58 58 57 57 56 56 56 56 55 55 54 54 53 53 54 54 54 52 50 45 43 45 48 52 55 55 55 57 57 55 57 59 59 57 55 55 55 56 55 55 54 56
42 43 44 45 45 45 46 46 45 46 46 46 46 45 46 47 47 48 50 51 51 51 51 51 50 50 50 51 52 50 48 40 41 41 42 43 46 51 58 58 57 57 57 57 57 57 57 57 57 56 56 56 57 56 56 55 54 54 53 52 52 52 53 54 56 57 58 60 59 58 59 59 60 59 58 58 59 58 59 58 58 58 57 56 56
40 41 42 44 44 45 45 45 45 44 44 44 44 44 44 45 45 46 46 47 47 48 48 48 48 48 48 49 51 50 48 39 40 41 42 44 47 56 57 57 56 56 55 55 55 56 56 57 56 56 55 55 50 48 50 53 52 52 51 50 51 50 48 43 39 41 50 56 57 56 54 49 45 53 53 55 56 56 54 55 55 55 52 49 48
38 40 40 42 44 45 45 45 44 44 44 43 43 44 43 43 44 45 44 44 44 45 45 46 47 46 46 47 49 49 48 41 40 42 43 45 50 56 55 54 54 54 53 53 53 54 55 55 55 55 55 54 47 44 44 48 52 52 52 50 50 49 49 49 43 40 40 39 39 38 39 39 39 39 39 38 48 52 54 50 51 49 46 42 46
38 39 40 40 42 44 44 44 44 44 43 43 43 43 44 44 44 44 44 44 44 44 44 44 44 45 44 44 46 47 46 43 40 43 44 47 50 54 53 52 52 51 50 50 51 50 48 48 51 52 53 53 41 43 43 50 51 50 49 49 48 47 49 50 50 48 41 41 40 39 39 40 40 40 40 41 42 48 52 47 50 47 47 43 42
38 38 39 39 40 43 44 44 44 44 43 43 44 43 43 43 44 44 44 44 43 43 44 43 43 43 44 44 44 44 44 43 39 40 42 45 50 52 49 49 48 48 47 45 46 45 43 42 44 47 49 45 40 42 44 48 49 49 49 48 46 47 48 50 50 50 50 50 50 50 48 47 50 49 46 41 43 48 53 52 50 46 42 45 46
37 38 39 40 40 42 43 44 44 44 44 44 44 44 44 44 44 44 44 43 43 43 43 42 41 41 42 43 42 41 42 41 40 38 40 41 43 48 48 47 47 46 45 45 44 44 45 42 39 36 37 37 38 38 41 44 50 51 49 47 46 46 49 50 51 50 50 49 49 50 49 49 49 49 48 48 48 46 49 50 51 48 46 45 47
38 38 39 39 39 40 41 43 44 45 44 44 44 44 44 44 44 44 44 43 43 43 42 42 41 41 41 42 42 42 41 40 39 37 38 39 40 45 49 48 46 46 44 44 44 45 44 44 40 36 35 36 37 37 38 40 42 50 50 49 48 48 46 48 49 46 49 49 48 47 47 46 47 46 45 45 44 45 45 47 48 49 48 46 44
38 38 38 38 39 39 40 42 43 44 45 45 44 44 44 44 44 45 45 44 43 43 43 42 42 41 42 42 42 41 42 41 41 38 37 37 37 40 46 46 46 46 45 44 43 43 43 43 42 38 36 36 36 36 37 37 39 47 45 39 40 42 49 48 48 48 47 45 44 43 44 44 43 45 45 45 43 43 45 44 45 45 45 46 44
37 38 38 39 39 39 40 40 41 42 43 44 44 43 43 43 43 43 44 43 43 43 43 43 42 41 41 42 42 42 42 41 38 39 37 37 37 37 38 41 40 47 45 44 43 42 43 43 41 38 36 36 36 36 37 38 40 41 38 39 39 40 42 44 43 44 43 43 43 43 43 43 43 43 44 44 44 45 43 43 43 42 42 42 42
37 37 38 38 38 38 38 39 40 41 42 42 43 43 44 44 44 44 44 44 43 42 42 42 42 41 40 41 41 42 42 42 40 38 38 36 36 37 37 37 39 43 44 43 43 43 43 42 39 36 36 36 36 36 37 38 39 37 38 38 38 40 44 43 43 43 41 42 42 42 42 42 42 43 43 45 43 45 43 42 42 42 42 42 40
39 37 36 37 37 37 38 38 39 39 40 41 41 41 41 42 42 43 43 43 43 42 41 41 41 41 40 40 40 41 41 42 41 40 38 37 36 36 36 37 37 39 42 42 41 41 37 36 36 37 37 37 37 37 37 37 36 37 37 38 42 46 44 43 43 43 43 42 41 41 40 40 41 43 44 44 45 44 43 42 41 41 41 42 42
40 38 36 36 36 36 37 37 37 37 39 40 40 40 41 41 41 41 42 42 42 42 42 41 41 41 40 40 40 40 40 40 40 40 40 40 39 37 37 37 38 38 39 39 37 37 37 37 37 38 38 39 42 42 41 40 37 37 38 40 43 44 45 45 43 41 40 39 38 39 39 39 39 42 43 44 43 42 43 42 40 40 41 40 39
40 40 38 36 36 36 36 36 36 36 36 38 38 39 39 39 39 40 41 41 42 41 41 41 41 41 40 41 41 40 39 38 38 39 39 40 41 41 42 42 39 39 42 42 40 40 39 39 38 37 37 36 37 37 38 38 40 41 42 42 40 40 40 41 41 40 39 38 37 38 38 38 40 41 40 40 40 41 41 40 38 39 40 39 38
39 40 40 38 35 35 36 34 35 35 35 35 37 38 38 38 37 37 37 39 41 41 40 40 40 40 41 42 42 41 40 38 37 37 38 39 40 41 41 40 41 41 41 42 42 42 42 38 40 42 42 42 42 41 40 38 38 37 37 37 37 37 37 37 38 39 38 38 38 38 38 38 37 37 37 37 36 37 39 38 37 37 37 38 37
39 40 40 39 38 37 36 36 36 36 36 35 35 36 37 38 38 37 37 36 38 41 41 40 40 40 40 40 41 41 40 38 37 35 35 35 36 40 41 40 41 40 39 38 41 41 41 41 41 41 39 35 35 36 36 36 36 36 38 37 36 36 37 37 37 37 38 37 38 38 37 37 37 37 36 35 36 37 38 37 39 38 36 35 33
38 38 39 39 39 38 38 36 36 36 36 36 36 35 33 34 35 36 37 35 35 35 35 38 39 40 39 38 38 39 38 37 34 35 35 35 35 35 35 35 35 38 36 36 39 37 37 36 36 35 35 35 34 34 34 35 35 34 35 34 35 35 35 36 36 36 36 36 37 36 35 35 35 35 35 35 35 35 34 35 37 37 36 35 35
36 37 37 38 39 40 39 38 38 37 37 37 36 34 36 35 34 34 35 35 35 35 35 35 35 35 39 39 37 35 35 34 34 35 35 35 35 35 35 35 35 34 34 34 34 34 34 33 34 34 35 36 34 34 34 34 33 34 34 34 35 34 34 35 34 33 33 34 34 34 34 34 33 33 33 34 33 33 33 34 34 36 36 36 33
35 37 38 38 39 40 40 40 40 40 39 38 38 37 35 35 36 34 34 34 35 35 35 35 35 35 35 36 38 38 35 35 35 35 35 35 35 34 34 34 34 34 34 34 33 33 33 33 33 34 35 34 33 33 34 34 34 34 34 33 34 34 34 34 34 34 33 32 31 31 31 33 33 32 33 32 31 32 32 34 34 35 35 34 34
37 36 36 37 38 39 40 41 41 40 40 40 40 39 38 37 36 35 35 34 34 34 34 34 34 34 35 35 35 34 34 34 35 35 35 34 34 34 34 34 34 34 34 34 33 33 33 35 35 35 34 34 34 34 35 35 35 35 34 34 33 34 34 33 33 33 32 32 31 30 30 30 29 29 29 29 30 31 32 33 34 35 34 33 32
36 34 35 37 37 36 37 40 42 42 41 40 40 39 39 40 40 40 38 35 35 35 35 34 34 34 34 34 34 34 34 34 34 34 34 34 34 34 34 35 34 35 34 34 34 33 34 34 34 34 34 34 33 33 33 33 33 33 33 33 33 33 34 34 32 31 31 31 31 29 30 31 29 29 29 31 32 31 31 30 31 30 30 31 31
34 33 32 34 35 36 36 37 39 41 41 41 40 40 40 39 39 40 39 39 39 37 36 36 34 34 34 34 34 34 34 34 34 34 34 34 34 34 34 36 33 34 35 35 35 35 34 34 34 34 34 34 34 34 34 34 33 33 32 32 32 32 32 32 32 32 32 33 32 30 30 31 32 29 28 28 27 27 27 29 30 31 30 29 28
34 33 36 36 36 36 36 36 37 39 39 39 40 40 40 40 39 39 39 39 39 37 38 38 36 35 34 35 34 34 34 34 34 34 34 34 34 34 33 32 33 34 33 34 34 34 34 34 34 34 35 34 35 34 34 33 34 33 32 32 31 31 31 31 30 31 32 32 30 30 31 30 30 28 30 30 31 29 29 29 28 28 29 29 27
33 33 34 34 35 36 36 37 38 38 35 35 36 37 38 38 38 39 39 38 37 37 37 36 36 37 36 36 36 34 33 33 33 33 33 33 34 34 34 34 33 33 33 33 34 34 34 34 34 35 35 34 34 33 33 33 33 33 33 32 32 31 32 31 30 29 28 26 28 30 30 28 29 29 27 26 26 27 27 28 27 27 26 26 27
36 35 34 35 36 37 37 36 36 34 36 36 37 36 36 36 36 37 36 35 35 35 36 35 34 33 33 34 36 35 34 34 34 33 33 33 33 33 33 33 33 33 34 33 34 35 34 34 35 35 34 34 34 34 33 33 32 32 32 32 30 29 30 28 30 30 28 26 26 27 27 27 27 27 26 26 25 26 26 26 25 24 25 25 24
36 33 32 31 31 34 33 33 34 35 35 36 35 35 34 34 35 36 36 35 34 34 34 34 33 33 33 34 34 35 34 32 32 31 32 33 33 34 34 34 33 33 34 34 34 34 34 33 33 34 34 33 33 33 32 32 32 31 30 29 29 29 26 25 26 26 26 25 26 26 26 27 27 26 26 25 25 25 25 26 25 25 24 24 24
36 34 34 32 33 33 35 33 34 34 33 34 33 34 34 34 35 35 35 34 34 33 34 33 33 34 34 34 33 33 32 32 32 32 32 32 33 34 34 33 33 33 34 34 34 34 34 33 33 34 33 33 32 32 31 31 31 29 28 27 26 26 26 26 25 25 25 26 25 25 25 26 25 25 25 25 25 25 25 25 25 25 24 25 25
35 35 32 32 31 34 32 32 32 33 34 33 33 35 34 34 35 34 35 34 34 33 33 34 34 34 33 33 32 32 32 33 32 32 32 32 33 33 34 34 33 33 33 33 33 33 33 33 32 32 33 32 32 31 31 31 29 29 26 26 26 26 26 27 27 26 26 26 26 25 25 25 25 24 24 25 27 26 25 25 25 24 24 24 25
36 34 34 33 34 33 31 31 32 33 34 34 34 33 33 33 34 34 34 33 32 33 32 34 34 33 33 32 33 32 33 32 32 32 32 33 33 33 33 34 34 34 34 34 34 33 33 32 32 32 31 31 29 30 29 28 29 27 26 26 26 26 26 26 26 27 26 26 26 26 25 25 25 24 25 27 24 24 24 24 24 24 23 22 23
37 34 34 33 34 33 32 33 33 33 32 32 32 32 33 34 35 35 34 33 32 32 33 33 34 33 32 31 32 32 33 33 31 33 32 32 33 33 33 33 33 34 34 34 33 33 32 31 31 31 29 30 31 28 27 27 27 26 26 27 26 26 26 26 26 26 25 25 25 26 27 25 24 24 24 24 24 24 24 24 24 23 23 23 23
34 34 34 33 33 33 33 32 31 32 32 31 33 32 33 33 33 35 33 33 32 32 33 33 33 33 33 32 33 32 33 33 32 32 33 32 33 33 33 33 33 33 34 32 32 32 32 30 30 30 31 31 32 32 29 28 27 27 26 26 26 26 26 26 26 26 25 24 24 24 24 24 24 23 24 23 24 23 23 24 23 23 22 22 23
35 35 33 34 33 33 33 33 32 32 31 31 33 33 32 33 33 32 32 33 31 32 33 32 32 32 32 32 32 32 33 33 32 32 32 33 33 33 33 33 33 33 33 32 32 32 31 30 29 29 29 30 31 31 30 30 30 27 26 26 26 25 25 26 26 26 26 25 24 24 23 22 23 21 21 21 21 22 21 22 22 22 22 22 22
35 34 33 33 31 31 31 32 31 32 32 31 31 32 32 34 33 33 32 32 32 32 31 31 31 32 32 33 32 31 32 32 32 31 32 32 32 32 32 32 32 33 32 32 31 31 30 30 29 29 29 29 30 30 29 28 28 28 29 27 27 26 27 27 27 26 26 26 24 23 23 22 22 21 22 20 18 19 20 21 21 21 21 22 22
37 34 31 30 30 31 31 32 31 31 32 32 32 32 32 33 33 33 32 33 33 32 31 31 31 31 32 33 32 32 32 31 31 30 31 32 33 33 32 32 32 32 32 32 32 31 30 29 29 29 29 28 28 28 26 26 26 24 26 22 22 23 24 25 25 26 25 26 23 21 19 18 18 17 21 20 17 18 19 17 18 19 20 20 21
34 31 30 30 31 31 31 32 32 31 32 32 32 32 31 32 33 33 33 33 33 32 33 32 31 31 31 32 32 32 31 31 31 31 30 30 31 32 32 33 32 32 32 31 31 30 29 30 29 29 28 27 26 25 23 20 22 18 21 22 22 20 20 23 24 26 25 25 24 22 20 18 16 13 13 18 19 16 15 14 15 15 17 18 20
33 31 31 31 30 30 31 31 31 31 32 32 32 32 31 32 32 32 33 33 33 32 32 32 30 30 31 31 32 32 32 32 32 31 29 29 31 32 32 32 31 32 31 31 31 30 31 30 29 29 28 27 26 24 25 20 17 21 23 18 21 20 20 22 23 23 24 27 22 22 22 18 17 17 17 18 17 17 15 16 16 17 17 19 20
35 33 32 32 31 30 31 31 31 33 32 32 31 30 31 31 31 32 32 32 32 33 32 32 31 31 31 32 31 32 32 32 31 31 30 29 31 31 31 32 32 31 31 31 31 30 30 31 30 29 28 27 25 25 21 22 18 19 17 19 21 20 19 20 21 21 24 22 20 21 19 19 19 16 15 17 18 17 17 15 19 18 19 20 21
35 36 33 31 32 34 32 31 30 30 30 30 30 29 30 30 30 31 31 33 32 32 32 33 33 33 32 32 32 32 32 32 32 31 31 30 30 31 31 31 31 31 31 31 30 30 30 30 30 29 28 26 24 21 19 18 16 17 21 20 19 19 19 19 23 20 21 22 24 19 18 18 18 17 16 15 16 17 18 20 20 22 20 20 22